Location: *
(32.7986°N, 5.3225°W)
Time: 03:14:29
(UTC+00:00)

Daily predictions for brighter satellites

Satellite Brightness Start Highest point End
(mag) Time Altitude Azimuth Time Altitude Azimuth Time Altitude Azimuth
Cosmos 1943 Rocket 4.5 02:49:37 17° NNE 02:49:37 17° NNE 02:50:52 10° NNE
Cosmos 2344 4.3 02:54:20 42° N 02:54:20 42° N 02:59:34 10° NNE
ATLAS 3B R/B 3.6 03:06:40 39° NNE 03:06:40 39° NNE 03:10:38 10° NNE
H-2A R/B 4.2 03:04:06 65° SSW 03:05:45 71° SSE 09:34:05 10° SE
Lacrosse 5 rocket 4.3 03:11:37 15° ENE 03:11:37 15° ENE 03:12:51 10° E
IDEFIX/ARIANE 42P 4.1 03:21:49 10° NE 03:26:27 31° E 03:27:33 28° ESE
Cosmos 1656 Rocket 4.1 03:41:58 55° N 03:41:58 55° N 03:46:22 10° NNE
ADEOS II 4.2 03:36:15 10° N 03:37:21 16° NNW 03:37:21 16° NNW
CENTAUR R/B 3.5 03:46:12 32° NNW 03:46:12 32° NNW 03:50:58 10° NNE
Cosmos 2369 Rocket 3.9 03:49:20 21° NNW 03:49:20 21° NNW 03:51:40 10° N
Cosmos 2195 Rocket 4.4 03:47:18 79° S 03:47:44 88° E 03:54:02 10° N
Meteor 2-6 Rocket 4.2 04:02:22 66° WNW 04:02:22 66° WNW 04:07:59 10° N
Cosmos 1428 Rocket 4.5 03:59:49 37° S 04:02:31 84° E 04:08:49 10° N
OAO 3 Rocket 4.5 04:02:45 29° SE 04:02:45 29° SE 04:06:33 10° E
Yuri Rocket 3.9 04:03:07 52° S 04:03:13 52° S 04:09:45 10° E
OAO 1 Rocket 4.4 04:05:46 70° NNW 04:06:12 74° N 04:11:32 10° E
PSLV R/B 3.7 04:03:09 10° NNE 04:07:00 68° NNE 04:07:00 68° NNE
Cosmos 1733 Rocket 3.2 04:04:41 10° N 04:09:09 74° E 04:10:07 52° SSE
Meteor 1-27 Rocket 3.9 04:08:54 24° S 04:12:35 79° E 04:18:25 10° N
Atlas Centaur 2 2.6 04:12:06 52° WSW 04:13:28 63° S 04:21:13 10° ESE
SeaSat 1 2.3 04:08:34 10° NNE 04:13:31 84° WNW 04:14:09 68° SW
Cosmos 1092 Rocket 4.4 04:15:54 40° WNW 04:15:54 40° WNW 04:20:59 10° N
SL-4 R/B 4.2 04:17:01 13° N 04:18:56 20° NE 04:21:39 10° E
Meteor 1-10 Rocket 4.4 04:21:13 49° W 04:21:44 50° W 04:27:29 10° N
Cosmos 1812 3.1 04:23:31 52° NNW 04:23:31 52° NNW 04:26:34 10° N
ADEOS 3.6 04:19:25 10° N 04:24:32 58° WNW 04:25:28 50° WSW
Cosmos 1315 Rocket 2.7 04:27:31 70° WSW 04:27:46 73° W 04:31:54 10° N
PAYLOAD A 4.0 04:27:23 10° NNE 04:32:05 71° ESE 04:36:44 10° S
Meteor 1-11 Rocket 3.6 04:28:57 10° N 04:34:32 90° NNW 04:40:03 10° S
Hubble Space Telescope 1.4 04:35:41 38° SSW 04:35:49 38° S 04:39:40 10° ESE
Shenzhou-11 Module 2.5 04:37:49 47° ESE 04:37:49 47° ESE 04:40:10 10° ENE
H-2A R/B 2.9 04:38:53 17° S 04:38:53 17° S 04:41:45 10° SE
Sakura Rocket 3.5 04:40:57 39° SW 04:42:14 52° S 04:47:35 10° ESE
USA 215 3.2 04:38:00 10° NE 04:44:30 72° NW 04:48:48 23° SW
SJ-6F 4.3 04:44:14 10° N 04:48:25 81° WNW 04:52:36 10° SSW
Lacrosse 5 rocket 1.7 04:47:25 32° WNW 04:48:56 46° SW 04:53:16 10° SSE
Cosmos 1703 Rocket 3.5 04:44:58 10° S 04:49:26 84° W 04:53:52 10° N
Intercosmos 24 Rocket 4.4 04:47:29 10° NNW 04:52:08 58° W 04:55:45 10° S
Meteor PRIRODA 4.5 04:52:06 10° NNE 04:55:43 52° E 04:59:19 10° S
ATLAS 3B R/B 4.4 04:53:56 11° WNW 04:55:50 13° NW 04:58:38 10° NNW
Cosmos 2242 Rocket 4.3 04:56:20 27° WSW 04:57:45 32° W 05:01:49 10° NNW
Cosmos 1666 3.4 04:54:47 10° N 04:58:30 55° E 05:02:12 10° SSE
Meteor 1-31 Rocket 2.6 04:56:50 10° N 05:00:43 77° WNW 05:04:33 10° SSW
Cosmos 1340 2.6 04:58:50 10° NNW 05:02:33 57° W 05:06:15 10° S
OAO 2 Rocket 3.2 05:00:52 24° W 05:03:52 81° NNW 05:08:47 10° ENE
H-2A R/B 3.4 05:01:30 10° NNW 05:04:33 23° WNW 05:05:02 22° W
IDEFIX/ARIANE 42P 3.6 05:01:33 10° NNW 05:05:52 26° WNW 05:08:21 18° WSW
Cosmos 1553 Rocket 4.0 05:00:16 10° NNW 05:06:18 55° W 05:12:13 10° SSW
ASTRO E2 2.7 05:05:59 24° W 05:08:16 73° S 05:12:16 10° E
Cosmos 2084 Rocket 3.5 05:05:45 10° NNW 05:10:08 86° ENE 05:14:26 10° SSE
Helios 1A Rocket 4.4 05:06:31 10° NNE 05:10:23 40° E 05:14:15 10° S
BREEZE-M DEB (TANK) 3.8 04:56:45 10° SW 05:11:11 74° SE 05:15:03 10° NE
Okean 1-7 3.2 05:10:04 10° SSW 05:14:20 50° W 05:18:37 10° N
Cosmos 44 Rocket 4.3 05:12:20 18° WSW 05:15:08 28° NW 05:19:25 10° N
Cosmos 1536 3.3 05:12:26 10° NNW 05:16:06 36° W 05:19:46 10° SSW
Cosmos 1346 Rocket 3.4 05:12:53 10° NNW 05:16:38 35° W 05:20:21 10° SSW
Chunghua 1 4.5 05:16:49 17° W 05:19:34 71° SSW 05:23:15 10° ESE
Cosmos 1680 Rocket 3.5 05:20:03 10° SSW 05:25:18 72° WNW 05:30:32 10° NNE
Cosmos 923 Rocket 4.2 05:20:47 10° SSW 05:25:58 52° WNW 05:31:11 10° N
COSMO-SKYMED 1 3.6 05:22:28 10° SSE 05:26:39 50° ENE 05:30:52 10° N
Timation 2 Rocket 4.3 05:21:17 10° NW 05:26:45 38° WSW 05:32:12 10° S
Cosmos 1484 Rocket 2.7 05:24:14 10° NNE 05:27:58 85° ESE 05:31:39 10° S
Cosmos 1697 Rocket 4.2 05:22:47 10° S 05:28:01 40° ESE 05:33:16 10° NE
Cosmos 1900 4.4 05:24:42 10° SSW 05:29:49 74° WNW 05:34:56 10° NNE
Cosmos 2227 Rocket 4.2 05:26:30 10° N 05:31:35 33° ENE 05:36:38 10° SE
CZ-2C R/B 3.2 05:28:22 10° N 05:32:46 33° WNW 05:37:16 10° SW
Cosmos 2219 3.8 05:28:18 10° NNW 05:33:55 62° ENE 05:39:28 10° SSE
CZ-4B R/B 4.0 05:32:37 10° NNW 05:36:32 30° WNW 05:40:23 10° SW
Lacrosse 5 2.5 05:32:59 10° NNW 05:37:59 59° NE 05:42:57 10° SE
Okean 2 Rocket 3.6 05:33:58 10° N 05:38:28 66° E 05:42:54 10° SSE
Cosmos 2297 Rocket 3.6 05:36:56 10° N 05:42:19 43° ENE 05:47:39 10° SE
Iridium 2 4.1 05:41:02 10° N 05:44:51 69° E 05:48:38 10° S
CZ-4B DEB 4.2 05:40:05 10° N 05:45:35 70° WNW 05:51:03 10° SSW
OAO 3 Rocket 3.1 05:41:06 10° WSW 05:45:45 86° SSE 05:50:25 10° ENE
Nadezhda 2 Rocket 4.5 05:39:54 10° S 05:45:59 82° W 05:52:08 10° N
